SCP
1 1 1 1 1 1 1 1 1 1 1 1 1 1 1 0 0 0 0 0 0 0 1 1 1 1 1 0 0 0 0 0 0 0 0 0 0 0 0 0 0 0 0
1 1 1 1 1 1 1 1 1 1 1 1 1 1 1 0 0 0 0 0 0 0 0 0 0 0 0 0 0 0 0 0 0 1 0 0 0 0 0 0 0 0 0
1 1 1 1 1 1 1 1 1 1 1 1 1 1 1 1 0 0 0 0 0 0 0 0 0 0 0 0 0 0 0 0 0 1 1 0 0 0 0 0 0 0 0
1 1 1 1 1 1 1 1 1 1 1 1 1 1 1 1 1 1 0 0 0 0 0 0 0 0 0 0 0 0 0 0 0 0 0 0 0 0 0 0 0 0 0
0 1 1 1 1 1 1 1 1 1 1 1 1 1 1 1 1 1 1 0 0 0 0 0 0 0 0 0 0 0 0 0 0 0 0 0 0 0 0 0 0 0 0
0 0 1 1 1 1 1 1 1 1 1 1 1 1 1 1 1 1 0 0 0 0 0 0 0 0 0 0 0 0 0 0 0 0 0 0 0 0 0 0 0 0 0
0 0 1 1 1 1 1 1 1 1 1 1 1 1 1 1 0 0 0 0 0 0 0 0 0 0 0 0 0 0 0 0 0 0 0 0 0 0 0 0 0 0 0
0 0 0 1 1 0 0 0 0 0 0 0 1 1 0 0 0 0 0 0 0 0 0 0 0 0 0 0 0 0 0 0 0 0 0 0 0 0 0 0 0 0 0
0 0 0 0 0 0 0 0 0 0 0 0 0 0 0 0 0 0 0 0 0 0 0 0 0 0 0 0 0 0 0 0 0 0 0 0 0 0 0 0 0 0 0
0 0 0 0 0 0 0 0 0 0 0 0 0 0 0 0 0 0 0 0 0 0 0 0 0 0 0 0 0 0 0 0 0 0 0 0 0 0 0 0 0 0 0
0 0 0 0 0 0 0 0 0 0 0 0 0 0 0 0 0 0 0 0 0 0 0 0 0 0 0 0 0 0 0 0 0 0 0 0 0 0 0 0 0 0 0
0 0 0 0 0 0 0 0 0 0 0 0 0 0 0 0 0 0 0 0 0 0 0 0 0 0 0 0 0 0 0 0 0 0 0 0 0 0 0 0 0 0 0
0 0 0 0 0 0 0 0 0 0 0 0 0 0 0 0 0 0 0 0 0 0 0 0 0 0 0 0 0 0 0 0 0 0 0 0 0 0 0 0 0 0 0
0 0 0 0 0 0 0 0 0 0 0 0 0 0 0 0 0 0 0 0 0 0 0 0 0 0 0 0 0 0 0 0 0 0 0 0 0 0 0 0 0 0 0
0 0 0 0 0 0 0 0 0 0 0 0 0 0 0 0 0 0 0 0 0 0 0 0 0 0 0 0 0 0 0 0 0 0 0 0 0 0 0 0 0 0 0
0 0 0 0 0 0 0 0 0 0 0 0 0 0 0 0 0 0 0 0 0 0 0 0 0 0 0 0 0 0 0 0 0 0 0 0 0 0 0 0 0 0 0
0 0 0 0 0 0 0 0 0 0 0 0 0 0 0 0 0 0 0 0 0 0 0 0 0 0 0 0 0 0 0 0 0 0 0 0 0 0 0 0 0 0 0
0 0 0 0 0 0 0 0 0 0 0 0 0 0 0 0 0 0 0 0 0 0 0 0 0 0 0 0 0 0 0 0 0 0 0 0 0 0 0 0 0 0 0
0 0 0 0 0 0 0 0 0 0 0 0 0 0 0 0 0 0 0 0 0 0 0 0 0 0 0 0 0 0 0 0 0 0 0 0 0 0 0 0 0 0 0
0 0 0 0 0 0 0 0 0 0 0 0 0 0 0 0 0 0 0 0 0 0 0 0 0 0 0 0 0 0 0 0 0 0 0 0 0 0 0 0 0 0 0
0 0 0 0 0 0 0 0 0 0 0 0 0 0 0 0 0 0 0 0 0 0 0 0 0 0 0 0 0 0 0 0 0 0 0 0 0 0 0 0 0 0 0
0 0 0 0 0 0 0 0 0 0 0 0 0 0 0 0 0 0 0 0 0 0 0 0 0 0 0 0 0 0 0 0 0 0 0 0 0 0 0 0 0 0 0
0 0 0 0 0 0 0 0 0 0 0 0 0 0 0 0 0 0 0 0 0 0 0 0 0 0 0 0 0 0 0 0 0 0 0 0 0 0 0 0 0 0 0
0 0 0 0 0 0 0 0 0 0 0 0 0 0 0 0 0 0 0 0 0 0 0 0 0 0 0 0 0 0 0 0 0 0 0 0 0 0 0 0 0 0 0
0 0 0 0 0 0 0 0 0 0 0 0 0 0 0 0 0 0 0 0 0 0 0 0 0 0 0 0 0 0 0 0 0 0 0 0 0 0 0 0 0 0 0
0 0 0 0 0 0 0 0 0 0 0 0 0 0 0 0 0 0 0 0 0 0 0 0 0 0 0 0 0 0 0 0 0 0 0 0 0 0 0 0 0 0 0
Wind_Speed
3 4 4 4 3 3 4 4 4 5 4 3 3 3 2 2 1 1 1 2 3 3 3 4 3 4 4 5 6 5 6 6 5 5 6 5 6 5 3 4 5 5 5
3 4 4 4 4 4 4 4 4 4 4 3 2 1 1 1 1 0 0 1 2 3 3 3 4 4 4 5 5 5 5 5 4 4 5 5 4 3 3 3 3 4 4
3 4 4 4 4 4 3 3 3 3 3 4 3 3 2 2 1 0 0 1 2 2 3 4 4 4 5 4 5 5 5 5 4 3 3 4 4 4 3 3 3 3 3
4 4 4 4 4 4 4 3 3 3 3 3 3 3 2 0 1 1 1 1 1 2 2 3 3 4 4 4 5 4 4 5 4 3 3 4 4 4 4 3 3 3 3
3 4 4 5 4 4 4 4 3 3 3 2 2 2 1 0 0 1 1 1 1 2 2 3 3 4 4 4 5 4 4 4 4 4 4 4 4 5 5 5 4 3 3
3 4 5 6 5 5 4 4 4 3 3 2 2 1 1 0 1 1 1 1 1 1 3 3 4 4 4 4 4 4 4 4 5 4 4 4 3 4 4 5 4 4 3
3 4 5 6 6 6 5 5 4 3 3 3 2 1 1 1 1 1 1 2 2 2 3 4 4 4 4 4 4 4 4 4 4 4 4 4 4 4 4 5 5 5 4
2 3 4 5 5 5 5 5 4 3 3 3 2 2 1 0 1 2 2 1 2 2 3 4 4 4 5 5 4 4 4 3 4 4 4 4 4 4 4 5 5 5 5
2 3 4 5 5 5 5 4 4 3 2 2 3 2 2 1 1 0 1 1 2 2 3 4 4 4 5 5 5 3 4 4 4 4 5 4 4 3 4 4 5 5 5
2 3 3 4 5 5 5 4 4 3 2 2 2 2 2 1 1 0 1 2 2 2 3 3 4 4 4 4 5 4 4 4 4 4 5 5 4 3 4 4 4 5 6
2 3 3 4 5 5 5 5 4 3 2 2 2 2 2 1 1 0 1 1 2 3 3 3 3 3 4 4 4 5 4 4 4 5 4 5 5 4 4 3 4 4 4
2 3 4 4 4 4 4 4 3 3 2 2 3 2 1 1 0 0 1 1 2 3 3 4 4 4 4 4 4 4 4 4 5 5 5 6 5 4 4 4 4 4 4
2 3 4 4 3 3 3 3 3 3 2 1 3 2 1 0 1 1 1 2 2 3 3 4 4 4 4 4 4 4 5 5 5 5 5 5 6 5 4 5 4 4 4
3 3 3 3 3 3 2 2 3 2 2 2 2 1 1 1 1 1 1 2 3 3 3 3 3 4 4 4 5 5 5 5 5 5 5 5 5 5 5 4 4 4 5
4 4 3 3 3 3 3 1 2 2 2 2 2 2 1 1 1 2 2 2 2 3 3 3 3 3 3 3 5 6 6 5 6 5 5 4 4 5 5 5 5 5 5
4 4 4 4 3 3 3 2 2 2 3 3 3 2 2 2 2 1 1 2 2 3 3 3 3 3 3 3 5 7 6 6 6 6 6 5 3 3 5 6 6 6 6
3 4 4 4 3 3 3 3 2 3 3 3 3 2 2 2 2 2 1 1 2 2 3 4 4 4 3 2 5 6 7 7 6 6 6 6 5 5 6 5 7 7 8
3 4 4 4 3 3 3 3 3 3 3 3 3 2 2 2 2 2 2 2 2 2 3 4 4 4 3 2 4 7 7 6 6 6 6 5 6 5 7 7 6 6 5
3 3 4 4 3 4 3 4 3 3 3 3 3 2 2 2 2 2 2 2 2 3 4 4 4 4 4 2 4 7 7 5 6 5 5 5 6 3 5 7 7 7 6
1 2 3 4 3 4 4 4 4 3 3 3 3 2 2 2 2 2 2 2 3 3 4 4 4 5 5 2 4 6 6 6 6 5 4 1 3 4 5 7 7 8 7
1 1 2 3 3 4 4 4 3 3 2 2 2 2 2 2 2 2 2 2 3 3 4 4 4 4 4 2 3 4 5 6 7 6 5 3 1 4 6 7 7 8 9
1 2 2 2 3 4 4 4 3 3 2 2 2 2 2 2 1 1 2 2 3 3 3 3 3 2 2 2 1 3 5 7 7 7 6 5 5 7 9 7 6 8 9
2 2 3 3 3 5 5 4 3 3 3 2 2 1 1 1 1 1 1 2 2 3 3 3 3 3 3 1 2 4 6 6 6 6 7 8 9 9 8 7 8 8 6
2 3 3 3 4 5 5 4 3 3 3 3 2 2 2 2 1 2 2 2 2 3 3 4 4 4 4 4 4 4 4 4 5 6 6 8 10 9 7 6 6 5 4
3 3 4 3 4 5 5 4 4 4 3 3 2 2 2 2 1 2 2 2 2 3 4 4 5 5 5 6 7 6 6 6 6 8 6 5 5 5 4 4 4 5 4
3 3 4 4 4 5 5 4 4 4 4 3 3 2 2 1 2 1 1 1 2 2 3 4 5 4 3 5 7 7 7 7 8 7 5 6 6 7 6 6 5 5 5
Wind_Direction
144 134 136 134 130 135 144 148 163 163 167 164 176 172 175 174 159 151 34 313 313 320 303 305 304 298 299 296 296 293 286 281 285 282 277 255 242 245 252 259 268 259 256
145 133 128 129 137 152 157 155 164 162 172 162 170 178 182 175 120 28 34 323 330 322 310 326 311 311 303 295 296 294 287 285 282 282 292 284 251 228 239 259 265 271 268
169 154 144 144 149 155 158 154 153 154 157 161 167 162 167 182 164 201 53 1 344 344 349 333 325 321 307 307 295 285 286 287 286 281 287 287 286 298 236 238 256 270 272
169 159 158 155 160 160 148 136 142 140 153 173 171 171 181 162 355 327 37 9 360 356 355 338 336 324 320 316 299 310 297 288 287 279 264 270 290 285 284 264 265 277 280
168 167 167 159 157 152 142 138 141 146 155 172 174 190 180 124 49 31 59 351 20 5 3 338 327 320 319 325 316 308 299 296 294 293 284 274 266 265 270 279 282 277 275
172 168 162 154 151 143 139 139 133 137 150 156 159 167 121 58 30 12 31 4 30 12 11 347 336 324 331 324 318 313 306 304 301 294 286 281 275 269 270 271 272 281 282
163 164 163 159 154 148 145 142 135 133 148 145 136 128 121 137 119 4 35 352 356 5 7 349 335 332 328 319 318 310 312 309 306 296 294 290 284 280 279 275 275 279 284
147 163 164 159 154 151 154 149 144 137 139 139 124 107 104 63 61 29 349 349 347 1 355 337 332 329 324 321 319 305 310 308 305 305 301 288 282 281 276 278 277 273 271
155 154 152 153 154 159 161 150 143 140 128 129 121 116 101 61 49 20 279 17 7 348 343 330 330 330 328 324 315 324 321 320 309 313 307 295 300 290 290 280 274 276 278
121 130 136 143 150 155 151 146 146 137 123 141 134 121 112 112 129 302 25 10 358 345 325 330 330 330 334 334 327 328 340 330 329 324 329 315 310 316 299 292 286 276 274
130 134 134 142 148 146 149 148 145 138 128 142 135 124 115 123 140 88 17 358 342 326 322 326 326 329 333 336 333 334 337 334 334 327 325 320 314 308 309 301 292 282 278
140 147 143 142 144 146 147 145 149 147 136 147 150 147 154 169 242 30 357 336 322 312 323 322 323 325 334 336 331 330 338 330 329 327 323 319 310 308 298 296 291 289 285
162 160 159 161 154 147 148 146 151 147 139 163 165 157 186 256 324 327 325 320 308 310 316 318 322 327 331 333 330 329 329 329 321 318 318 316 314 306 306 299 295 294 289
187 187 180 177 169 154 147 159 163 169 174 189 178 167 206 272 275 284 290 291 297 305 310 310 318 322 326 333 331 327 327 325 322 317 315 316 320 319 315 301 294 295 297
207 204 199 186 178 167 158 174 189 183 194 210 201 199 223 262 265 278 283 286 296 304 310 307 310 312 314 343 334 321 318 319 316 314 313 319 327 329 312 310 314 306 295
222 214 202 199 190 185 183 189 207 196 205 220 215 219 242 255 267 272 271 284 303 308 308 302 301 310 334 11 328 307 306 307 310 316 318 312 292 290 262 268 282 294 294
233 221 209 198 194 205 202 204 216 219 218 223 220 222 238 250 261 272 268 279 290 295 299 299 302 313 336 323 308 305 296 298 307 312 313 314 327 315 310 281 248 251 243
239 224 210 200 195 199 200 208 219 224 223 222 223 225 240 246 255 262 276 282 283 291 295 297 302 302 313 304 302 305 285 292 299 299 299 302 309 328 324 310 301 296 290
249 220 203 197 199 193 201 209 221 226 223 214 223 230 242 252 255 256 269 273 278 284 285 289 296 298 303 293 291 300 297 300 304 303 304 305 309 336 319 302 304 304 297
243 205 188 185 190 189 203 212 222 222 216 214 224 231 241 254 255 254 261 266 271 274 284 298 299 299 301 302 288 294 295 308 309 307 302 293 294 318 315 301 302 302 306
254 180 177 184 186 189 202 216 225 218 220 215 220 227 242 253 256 254 260 264 270 282 293 303 301 301 303 286 279 290 297 312 313 315 315 335 338 292 290 284 286 292 300
228 175 185 193 188 189 198 219 227 211 211 209 208 220 246 258 237 238 244 258 274 278 281 292 302 310 309 317 323 280 279 297 302 306 315 334 338 307 290 280 278 283 283
224 199 196 196 192 190 197 217 214 204 205 198 192 213 219 219 230 244 247 253 262 287 306 317 325 335 342 353 225 261 270 269 279 304 309 299 292 290 279 253 261 269 270
219 217 207 195 190 191 200 210 198 201 203 193 191 198 194 198 195 257 268 297 315 322 325 329 332 336 335 348 354 333 315 292 284 300 291 263 256 257 274 283 270 269 289
223 220 216 205 195 192 198 196 190 202 199 192 194 199 195 190 230 252 298 307 341 346 315 327 330 332 335 3 351 325 325 328 331 316 300 311 320 321 325 322 320 317 314
229 221 217 207 197 195 197 192 194 199 197 196 203 209 202 194 235 246 230 172 241 210 232 256 287 320 333 321 316 316 310 304 302 300 315 333 336 337 339 337 333 332 333